This is the latest recevied weather packets stored in our database for station/object KB1QVF. If no packets are shown the sender has not sent any weather packets the latest 10 day(s).
| Time | Temp. | Humidity | Pressure | Rain* | Wind** | Luminosity | Snow |
|---|---|---|---|---|---|---|---|
| 1777885741 | 2.78° C | 69% | 1013.7 hPa | 0 mm | - | 0 W/m² | - |
| 1777885438 | 3.33° C | 70% | 1013.6 hPa | 0 mm | - | 0 W/m² | - |
| 1777885138 | 3.33° C | 70% | 1013.4 hPa | 0 mm | - | 0 W/m² | - |
| 1777884834 | 3.33° C | 68% | 1013.4 hPa | 0 mm | - | 0 W/m² | - |
| 1777884530 | 3.89° C | 66% | 1013.1 hPa | 0 mm | - | 0 W/m² | - |
| 1777884228 | 3.89° C | 65% | 1013.4 hPa | 0 mm | - | 0 W/m² | - |
| 1777883923 | 4.44° C | 63% | 1013.3 hPa | 0 mm | - | 0 W/m² | - |
| 1777883620 | 4.44° C | 63% | 1013 hPa | 0 mm | - | 0 W/m² | - |
| 1777883316 | 4.44° C | 63% | 1013.3 hPa | 0 mm | - | 0 W/m² | - |
| 1777883013 | 4.44° C | 60% | 1013 hPa | 0 mm | - | 0 W/m² | - |
| 1777882709 | 5° C | 61% | 1013.1 hPa | 0 mm | - | 0 W/m² | - |
| 1777882406 | 5° C | 61% | 1013.2 hPa | 0 mm | - | 0 W/m² | - |
| 1777882102 | 5° C | 61% | 1013.3 hPa | 0 mm | - | 0 W/m² | - |
| 1777881800 | 5.56° C | 59% | 1013.4 hPa | 0 mm | - | 0 W/m² | - |
| 1777881496 | 5.56° C | 58% | 1013.4 hPa | 0 mm | - | 0 W/m² | - |
| 1777881193 | 5.56° C | 62% | 1013.2 hPa | 0 mm | - | 0 W/m² | - |
| 1777880891 | 5.56° C | 58% | 1013.2 hPa | 0 mm | - | 0 W/m² | - |
| 1777880588 | 5° C | 57% | 1013.2 hPa | 0 mm | - | 0 W/m² | - |
| 1777880287 | 5° C | 67% | 1013.2 hPa | 0 mm | - | 0 W/m² | - |
| 1777879984 | 5° C | 69% | 1012.9 hPa | 0 mm | - | 0 W/m² | - |
| 1777879683 | 5.56° C | 64% | 1013.1 hPa | 0 mm | - | 0 W/m² | - |
| 1777879379 | 6.11° C | 57% | 1013.2 hPa | 0 mm | - | 0 W/m² | - |
| 1777879076 | 6.67° C | 57% | 1012.9 hPa | 0 mm | - | 0 W/m² | - |
| 1777878773 | 6.67° C | 53% | 1013 hPa | 0 mm | - | 0 W/m² | - |
| 1777878471 | 6.67° C | 54% | 1013.1 hPa | 0 mm | - | 0 W/m² | - |
* Rain latest hour (hover to see other rain measurements)
** Current wind speed in m/s (hover to see current wind gust speed)